DELTA 1 DEB

Satellite information

Favourite Embed

Satellite Type and Status

DEBRISIN ORBIT

Key statistics

Satellite DELTA 1 DEB at a glance.

Uptime

18040

Days in orbit

Revolutions

≈ 12.3

Per day

Orbit

SSO

Sun Synchronous Orbit

Inclination

102.5

Latest

Satellite identification and parameters

Extended collection of information and parameters for DELTA 1 DEB.

Object identification

Identified? True

Debris? True

Object name: DELTA 1 DEB

International designator: 1976-077GB

Object number (NORAD): 40758

Object ID (CCSDS): 40758

Country: UNITED STATES OF AMERICA (US)

Current information (Y/N): Y

RCS size: SMALL

Orbital parameters

Period: 117.505 minutes

Inclination: 102.5007 deg

SMA: 7946.899 km

Apoapsis: 1639.286 km

Periapsis: 1498.243 km

RAAN: 313.3271 deg

Eccentricy: 0.0088741

Argument of periapsis: 73.0906 deg

Mean anomaly: 307.376 deg

Mean motion: 12.25479901 rev/day

Mean motion (dot): 0.00000046 rev/day2

B* drag term: 0.00080784255 1/REarth

Two-line elements (TLE)

Creation date: Dec. 13, 2025, 5:47 p.m.

Reference frame: TEME

Reference center: EARTH

Epoch: Dec. 13, 2025, 4:34 a.m. UTC

TLE line 0: 0 DELTA 1 DEB

TLE line 1: 1 40758U 76077GB 25347.19048549 .00000046 00000-0 80784-3 0 9992

TLE line 2: 2 40758 102.5007 313.3271 0088741 73.0906 307.3760 12.25479901539322

Live tracking on map

Real-time ground track for satellite DELTA 1 DEB.

In-orbit conjunctions

A list of the most updated potential collisions computed for object DELTA 1 DEB.

Target Orbit TCA Probability of collision Miss distance Type
COSMOS 80 LEO 2025-03-14 14:24:49 0.0001069371 731.0 (m) PAYLOAD

Associated space launch

Meteorological satellite using radiometric imaging

DELTA 1 DEB was lifted into orbit during the mission ‘Delta 2310 | NOAA 5’, on board a Delta 2310 space rocket.

The launch took place on July 29, 1976, 5:07 p.m. from Space Launch Complex 2W.

For more information about the launch, click the button.

Launch to space Delta 2310 | NOAA 5
Delta 2310 | NOAA 5

Agency: N/A

Status: Launch Successful

Launch date: July 29, 1976, 5:07 p.m. UTC

Rocket: Delta 2310

Launch pad: Space Launch Complex 2W

Location: Vandenberg SFB, CA, USA

...

Latest news about this satellite

There are no fresh news available about this satellite. Check back as we update our databases every day.


Newsletter sign-up

Weekly statistics, charts and insights to help you stay on top of the space industry.